Temperature
2 3 2 3 3 3 4 3 4 5 4 5 4 4 4 4 4 4 4 4 4 4 4 5 5 5 5 5 5 5 5 5 5 5 6 6 6 6 5 5 5 5 5 5
2 3 3 3 3 3 3 4 4 4 4 4 4 4 3 3 3 3 3 3 3 4 4 4 4 4 4 5 5 5 5 5 5 5 5 5 5 5 5 5 5 5 5 5
1 2 3 2 2 2 3 3 3 4 4 3 3 3 3 3 3 3 3 3 3 3 4 4 4 4 4 4 4 4 5 5 5 5 5 5 5 5 5 5 5 4 4 4
0 1 1 3 3 3 3 3 2 3 3 3 3 3 4 4 3 3 3 3 3 3 3 3 4 4 4 4 4 4 4 4 4 4 5 5 5 4 4 4 4 4 4 4
-0 0 1 2 2 2 2 2 2 2 2 2 3 3 3 3 4 3 3 3 3 3 3 3 3 3 3 4 4 4 4 4 4 4 4 4 4 4 4 4 4 4 4 4
-1 1 2 2 2 2 2 2 1 1 1 1 2 1 2 3 3 3 3 3 3 3 3 3 3 3 3 3 3 3 4 4 4 4 4 4 4 4 4 4 4 4 4 4
-1 -0 1 1 1 3 2 2 1 1 1 1 1 2 2 2 2 2 2 2 2 2 2 2 2 2 2 3 3 3 3 3 3 4 4 4 4 4 3 3 3 3 3 3
-1 -1 0 0 1 1 1 1 1 1 1 1 1 1 1 1 2 1 1 2 2 2 2 2 2 2 2 2 2 2 2 3 3 3 3 3 3 3 3 3 3 3 3 3
-1 -0 -0 0 0 0 0 0 0 0 0 0 -0 -0 0 0 1 1 1 1 1 1 1 1 1 1 2 2 2 2 2 2 2 2 3 3 3 3 3 3 2 2 2 2
-1 -1 -1 -0 -0 -0 -0 -0 -0 -0 -0 0 -0 -1 -0 -0 -0 -0 0 0 0 0 1 1 1 1 1 1 1 1 2 2 2 2 2 2 2 2 2 2 2 2 2 2
-2 -2 -1 -1 -1 -1 -1 -0 -1 -1 -1 -1 -1 -1 -1 -1 -1 -1 -1 -0 -0 -0 0 0 0 0 1 1 1 1 1 1 1 2 2 2 2 2 2 2 1 1 1 1
-2 -1 -2 -1 -1 -1 -1 -1 -1 -1 -1 -1 -1 -2 -2 -2 -1 -1 -1 -1 -1 -1 -1 -0 -0 -0 0 0 0 0 1 1 1 1 1 1 1 1 1 1 1 1 1 1
-1 -1 -1 -1 -1 -1 -2 -2 -2 -2 -2 -2 -2 -2 -2 -2 -2 -2 -2 -2 -1 -1 -1 -1 -1 -1 -0 -0 -0 -0 0 0 0 0 1 1 1 1 1 0 0 0 0 0
-1 -1 -2 -2 -2 -2 -2 -2 -2 -2 -3 -3 -3 -3 -2 -2 -2 -2 -2 -2 -2 -2 -1 -1 -1 -1 -1 -1 -1 -1 -0 -0 -0 0 0 0 0 0 0 0 0 0 -0 -0
-2 -2 -2 -2 -2 -2 -3 -3 -3 -3 -3 -3 -3 -3 -3 -3 -3 -3 -3 -2 -2 -2 -2 -2 -1 -1 -1 -1 -1 -1 -1 -0 -0 -0 -0 -0 -0 -0 -0 -0 -0 -0 -0 -0
-3 -3 -3 -3 -3 -3 -3 -3 -4 -4 -4 -4 -4 -4 -3 -3 -3 -3 -3 -3 -3 -2 -2 -2 -2 -2 -1 -1 -1 -1 -1 -1 -1 -1 -1 -1 -1 -1 -1 -1 -1 -1 -1 -1
-4 -4 -4 -4 -4 -4 -4 -4 -4 -4 -4 -4 -4 -4 -4 -4 -4 -3 -3 -3 -3 -3 -2 -2 -2 -2 -2 -2 -2 -1 -1 -1 -1 -1 -1 -1 -1 -1 -1 -1 -1 -1 -2 -2
-4 -4 -4 -4 -4 -4 -4 -4 -4 -4 -4 -4 -4 -4 -4 -4 -4 -4 -4 -4 -4 -3 -3 -3 -3 -2 -2 -2 -2 -2 -2 -2 -2 -2 -2 -2 -2 -2 -2 -2 -2 -2 -2 -2
-5 -5 -5 -5 -5 -5 -5 -5 -5 -5 -5 -5 -5 -5 -5 -5 -4 -4 -4 -4 -4 -4 -3 -3 -3 -3 -3 -3 -3 -2 -2 -2 -2 -2 -2 -2 -2 -2 -2 -2 -2 -2 -2 -2
-5 -5 -5 -5 -5 -5 -5 -5 -5 -5 -5 -5 -5 -5 -5 -5 -5 -5 -5 -5 -4 -4 -4 -4 -4 -3 -3 -3 -3 -3 -3 -3 -2 -2 -2 -2 -2 -2 -2 -3 -3 -3 -3 -3
-6 -6 -6 -6 -6 -5 -5 -5 -5 -5 -5 -6 -6 -5 -5 -5 -5 -5 -5 -5 -5 -5 -5 -4 -4 -4 -4 -4 -4 -3 -3 -3 -3 -3 -3 -3 -3 -3 -3 -3 -3 -3 -3 -3
-7 -7 -7 -6 -6 -6 -6 -6 -6 -6 -6 -6 -6 -6 -6 -6 -6 -6 -6 -5 -5 -5 -5 -5 -5 -5 -4 -4 -4 -4 -4 -4 -4 -4 -4 -4 -4 -4 -4 -4 -4 -4 -4 -4
-7 -7 -7 -7 -7 -7 -6 -6 -6 -6 -6 -6 -6 -6 -6 -6 -6 -6 -6 -6 -6 -6 -5 -5 -5 -5 -5 -5 -5 -5 -4 -4 -5 -4 -4 -4 -4 -4 -4 -4 -4 -4 -4 -4
-8 -8 -8 -7 -7 -7 -7 -7 -7 -7 -6 -6 -6 -6 -6 -7 -7 -6 -6 -6 -6 -6 -6 -5 -5 -5 -5 -5 -5 -5 -5 -5 -5 -5 -5 -5 -5 -5 -5 -5 -5 -5 -5 -5
-8 -8 -8 -8 -8 -8 -8 -7 -7 -7 -7 -7 -7 -7 -7 -7 -7 -7 -7 -6 -6 -6 -6 -6 -6 -6 -5 -5 -5 -5 -5 -5 -5 -5 -5 -5 -5 -5 -5 -5 -5 -5 -5 -5
-9 -9 -9 -8 -8 -8 -8 -8 -8 -7 -7 -7 -7 -7 -7 -7 -7 -7 -7 -7 -7 -7 -6 -6 -6 -6 -6 -6 -6 -6 -6 -6 -6 -6 -6 -5 -5 -6 -6 -6 -6 -5 -5 -5
-9 -9 -9 -9 -9 -8 -8 -8 -8 -8 -8 -8 -8 -8 -8 -8 -8 -7 -7 -7 -7 -7 -7 -7 -7 -6 -6 -6 -6 -6 -6 -6 -6 -6 -6 -6 -6 -6 -6 -6 -6 -6 -6 -6
Wind_Speed
4 4 3 3 5 5 5 6 6 6 5 5 3 2 1 1 2 3 3 2 2 2 2 2 2 2 2 1 1 1 1 1 2 2 2 2 2 2 1 1 1 1 1 1
2 2 2 3 4 5 5 5 6 5 6 3 1 2 2 2 2 2 1 1 2 2 2 2 2 2 2 2 2 1 1 2 2 2 1 1 1 1 1 1 1 0 1 1
2 3 2 4 5 6 4 4 5 7 7 1 0 2 4 3 2 1 1 1 1 2 2 2 2 2 2 2 2 1 1 1 1 0 1 2 1 1 1 1 1 0 1 1
1 2 3 6 2 4 5 3 3 3 2 3 3 2 2 3 3 2 2 1 1 1 2 3 2 2 2 2 1 1 1 1 1 1 1 1 0 1 1 1 1 1 1 1
2 2 5 5 2 1 3 4 2 3 3 2 1 1 1 1 1 2 2 1 1 1 2 2 2 2 2 2 2 1 1 2 2 1 1 0 0 0 1 0 1 1 1 1
2 3 4 4 4 3 2 3 3 2 3 1 1 2 4 2 1 0 1 1 1 1 2 1 1 1 1 2 2 2 2 2 2 1 1 1 1 0 1 0 1 1 1 1
3 4 5 5 6 2 3 5 5 2 1 2 3 4 2 1 1 1 1 1 1 1 1 1 1 1 1 2 2 3 3 2 2 1 0 1 1 1 1 1 1 1 1 1
3 3 5 3 2 1 3 3 3 2 1 1 1 1 1 1 1 1 2 2 1 1 2 1 1 1 1 2 3 2 2 2 1 2 1 1 2 1 2 2 2 1 1 2
4 4 3 1 1 2 2 2 3 2 2 1 1 1 2 2 1 1 1 1 1 1 2 2 1 1 1 2 2 2 2 2 2 2 2 2 2 2 2 2 1 1 1 1
3 4 4 3 3 4 4 3 3 2 1 1 1 1 1 1 1 1 1 1 1 2 2 2 2 2 2 2 2 2 2 2 2 2 3 3 2 2 2 1 1 1 1 1
3 4 3 3 3 4 4 4 3 4 3 1 1 2 1 1 1 1 1 2 1 1 1 2 2 2 2 2 2 2 2 2 2 2 2 3 3 2 2 1 1 1 1 1
4 4 3 4 3 3 3 4 3 3 3 3 1 1 1 1 1 1 1 1 1 2 2 2 2 2 2 2 1 2 2 2 1 1 2 2 3 3 6 5 5 5 5 3
4 3 3 3 2 2 2 3 3 2 2 2 2 1 1 1 1 1 1 1 1 1 1 2 2 2 2 2 1 2 2 1 1 1 2 2 2 2 3 4 7 7 6 6
2 1 2 2 2 2 2 3 3 3 2 2 2 2 1 1 1 1 1 1 1 1 1 1 1 2 2 1 1 2 2 2 2 1 1 2 2 2 2 2 3 3 4 6
3 1 2 1 1 2 2 2 3 3 3 3 3 2 1 1 1 1 2 2 1 1 1 1 1 2 2 1 1 1 1 1 1 1 2 2 2 2 2 2 2 2 2 3
3 2 1 1 1 1 2 2 2 3 3 3 3 3 2 1 1 2 1 1 1 1 1 1 2 2 2 2 1 1 1 2 2 1 2 2 2 2 2 2 2 2 2 2
0 1 1 2 2 3 2 2 2 2 2 3 3 2 2 1 1 1 2 1 1 1 1 1 1 2 2 1 1 1 1 1 2 2 1 1 2 2 2 2 2 1 1 2
3 4 4 3 3 3 3 3 2 2 2 3 3 2 1 1 1 1 1 1 2 2 2 2 1 1 1 1 1 1 1 1 1 1 1 1 2 1 1 1 1 1 1 2
2 2 2 3 3 3 3 3 2 2 2 2 2 2 2 2 2 1 1 1 1 1 2 2 2 2 2 1 2 1 1 1 1 1 1 2 2 1 1 1 1 1 1 1
2 2 2 2 2 2 2 2 2 2 2 2 2 2 2 2 2 1 1 1 2 2 2 1 1 1 1 1 2 1 2 2 2 2 2 1 1 1 1 1 1 1 1 1
3 3 2 2 3 3 2 2 2 2 3 2 2 2 2 2 1 1 1 1 2 1 1 1 1 1 1 0 1 1 2 2 1 1 1 1 1 1 1 1 1 1 1 1
3 3 3 3 3 3 3 2 2 2 2 2 2 1 1 1 1 1 2 2 2 2 1 0 0 0 0 1 1 1 2 1 1 1 1 1 1 1 1 1 1 1 1 1
3 3 3 3 3 4 4 3 2 2 2 2 2 1 1 2 2 1 2 2 1 1 1 1 1 0 1 1 1 1 1 1 1 1 0 0 0 0 0 1 1 1 1 1
2 3 3 3 3 3 3 3 3 2 2 2 2 1 1 1 2 2 2 2 2 2 1 1 0 1 2 1 1 1 1 1 1 1 0 0 0 0 0 0 1 1 1 1
2 2 2 2 2 2 3 3 2 2 2 2 2 2 1 1 1 2 2 1 2 1 1 0 0 1 1 1 1 0 0 1 1 1 0 0 0 0 1 1 1 1 1 1
2 3 3 3 3 3 2 2 2 2 2 2 2 2 2 2 1 1 1 1 1 1 1 0 0 0 1 1 0 0 0 0 1 1 0 0 1 1 1 1 1 1 2 2
2 2 2 2 2 2 2 2 2 2 2 1 2 2 2 1 1 1 1 1 0 0 0 0 0 0 0 0 0 0 0 0 1 1 1 1 1 1 2 2 2 2 2 2
Wind_Direction
263 260 205 236 243 219 205 202 204 235 237 264 254 227 204 113 89 79 62 45 34 20 10 9 4 352 337 320 319 306 250 231 242 252 254 260 247 241 235 227 242 245 256 287
303 274 237 273 260 231 232 223 228 248 262 265 240 111 118 120 106 89 59 357 336 342 345 339 335 328 322 310 305 307 270 268 272 258 253 240 243 236 213 228 262 255 250 273
269 318 4 281 244 215 218 217 199 229 245 228 161 180 180 174 167 182 223 253 271 277 277 285 288 293 290 293 310 315 299 288 286 255 255 237 231 223 213 213 222 242 265 285
216 52 239 247 235 211 219 243 227 234 251 216 217 211 186 169 174 209 250 250 266 295 309 304 309 320 319 327 338 339 324 307 287 246 251 258 219 224 255 239 220 227 255 272
167 214 269 288 286 211 207 255 247 247 291 319 33 49 323 295 175 217 234 251 260 259 300 306 320 335 346 355 2 354 319 310 299 262 228 188 155 260 280 235 187 200 243 261
162 187 235 269 297 288 154 278 308 261 247 249 90 221 255 296 333 350 3 4 359 352 350 345 337 351 18 358 356 325 303 296 300 287 200 180 195 227 357 59 146 150 52 6
199 221 261 288 308 13 147 261 311 306 252 214 218 234 244 295 342 25 25 14 23 41 15 337 342 14 23 2 332 316 316 322 334 335 274 177 161 88 75 71 78 76 55 11
173 207 258 315 25 154 246 304 325 326 327 326 314 358 19 33 25 37 38 30 34 43 9 357 14 30 13 340 327 336 348 2 9 7 24 74 100 85 79 87 85 65 47 19
197 220 278 285 255 299 319 316 320 332 336 14 5 337 346 358 26 30 44 50 32 59 23 1 6 27 359 329 342 4 24 21 21 34 45 63 87 87 73 75 92 79 59 30
253 281 302 316 339 348 344 329 325 344 347 6 360 345 346 357 31 34 1 25 29 53 34 359 357 8 359 347 359 40 44 26 21 49 55 55 62 67 74 67 95 98 90 52
258 285 319 318 323 329 341 353 12 9 358 358 16 349 343 351 352 2 356 5 18 46 13 343 359 15 12 12 33 51 49 37 33 49 71 65 59 53 64 54 93 124 130 149
240 247 237 269 295 331 348 344 345 355 355 351 354 335 342 340 334 352 1 357 12 16 4 349 5 17 11 13 47 74 56 39 40 56 73 78 76 56 46 51 55 68 69 77
249 272 257 266 308 345 341 333 334 337 323 330 346 357 2 347 327 343 346 348 341 332 336 349 6 7 359 6 44 69 66 45 41 55 80 85 82 83 60 38 46 57 63 67
289 331 296 300 303 335 349 350 349 356 3 360 355 5 16 6 5 351 318 313 319 333 347 4 10 351 346 17 49 58 58 64 69 63 85 89 87 85 88 79 51 34 39 52
332 320 253 277 334 8 16 20 12 1 4 3 7 6 8 14 340 324 327 334 349 9 2 11 9 348 351 17 50 59 59 62 69 66 70 79 82 84 78 77 69 51 39 38
325 357 43 61 3 352 9 7 348 333 343 347 349 347 343 342 334 327 327 334 18 1 346 9 3 344 353 17 45 54 60 71 65 81 81 79 82 88 86 80 73 59 45 31
284 288 299 299 297 301 304 300 290 296 315 327 323 331 350 1 1 352 347 350 2 349 341 347 344 348 358 19 48 63 60 78 72 79 88 89 92 96 96 92 88 74 39 32
243 243 239 240 251 271 288 297 300 303 304 308 317 316 312 301 291 305 322 354 16 9 354 348 358 11 20 29 41 59 70 74 82 97 101 100 103 106 105 107 98 84 46 33
279 271 279 278 271 261 262 274 285 293 297 298 297 286 278 279 282 284 294 324 345 328 326 340 6 26 26 25 40 70 85 89 87 81 84 97 94 96 106 108 104 92 80 59
318 311 307 304 301 276 265 273 276 280 282 279 279 290 296 298 296 287 276 283 280 276 290 320 360 23 27 34 43 78 93 96 95 91 88 93 99 100 101 100 101 96 76 56
327 321 313 308 309 308 287 271 265 275 285 274 253 254 268 283 283 261 242 290 311 326 326 340 12 15 29 58 64 87 95 94 89 86 84 86 84 81 77 71 68 65 59 28
317 320 318 316 313 312 310 297 275 275 282 283 276 269 274 294 308 310 281 262 268 308 335 308 326 345 30 70 106 106 101 96 89 83 79 77 83 80 65 53 38 14 1 344
302 306 310 314 311 307 312 309 297 287 276 276 273 265 261 268 269 258 282 301 294 286 318 264 286 4 78 78 106 114 117 117 119 124 127 115 91 78 53 16 345 328 318 316
295 301 307 311 316 317 317 317 319 315 303 299 292 280 266 282 309 312 293 277 296 310 310 259 297 108 91 81 108 126 140 146 148 161 166 138 73 31 357 328 318 313 308 310
290 293 297 304 306 300 300 312 325 329 335 329 322 321 312 289 274 289 302 284 284 322 334 253 161 91 83 87 104 131 188 197 178 170 180 191 252 276 282 280 284 289 296 297
282 280 278 278 278 278 283 289 298 309 319 327 331 333 340 341 333 307 305 302 287 326 344 312 219 90 85 100 121 169 217 264 305 308 283 277 288 287 284 285 287 279 286 291
292 291 296 307 308 298 287 279 275 285 291 291 310 321 330 335 336 335 327 308 286 304 300 298 200 148 149 186 257 266 262 265 265 265 269 274 270 269 272 273 278 288 291 293
Height
1463 1460 1461 1461 1460 1458 1459 1460 1461 1456 1455 1452 1451 1451 1451 1451 1451 1451 1452 1452 1452 1452 1451 1452 1452 1452 1453 1453 1453 1453 1453 1453 1453 1453 1453 1453 1453 1453 1453 1453 1453 1453 1452 1452
1463 1458 1458 1458 1457 1457 1456 1456 1456 1454 1454 1449 1449 1450 1451 1451 1451 1451 1451 1452 1452 1451 1451 1451 1451 1451 1451 1451 1451 1451 1451 1451 1451 1451 1451 1450 1450 1450 1450 1450 1450 1450 1450 1449
1466 1461 1457 1461 1456 1455 1454 1453 1453 1453 1450 1449 1450 1450 1449 1450 1450 1450 1451 1451 1451 1450 1450 1450 1450 1449 1449 1449 1449 1449 1449 1449 1449 1448 1448 1448 1448 1448 1448 1448 1448 1448 1447 1447
1468 1466 1469 1455 1449 1449 1449 1449 1449 1447 1446 1446 1446 1447 1448 1448 1449 1449 1449 1449 1449 1449 1449 1448 1448 1448 1448 1448 1447 1447 1447 1447 1447 1446 1446 1446 1445 1445 1445 1445 1445 1445 1445 1445
1469 1469 1461 1452 1448 1449 1450 1449 1447 1447 1446 1446 1446 1446 1447 1447 1448 1447 1448 1448 1447 1447 1447 1446 1446 1446 1446 1445 1445 1445 1445 1445 1445 1444 1444 1443 1443 1443 1443 1443 1444 1444 1444 1443
1469 1465 1460 1451 1446 1444 1447 1449 1446 1445 1445 1445 1445 1448 1446 1445 1446 1446 1446 1446 1446 1445 1445 1444 1444 1444 1444 1443 1443 1443 1443 1443 1443 1442 1442 1442 1442 1442 1442 1442 1442 1442 1442 1442
1467 1465 1457 1451 1446 1444 1452 1450 1445 1443 1442 1443 1443 1443 1443 1443 1443 1444 1444 1444 1444 1443 1443 1443 1442 1442 1442 1441 1441 1441 1441 1441 1441 1440 1440 1440 1440 1440 1440 1441 1441 1441 1441 1440
1466 1465 1459 1450 1447 1450 1449 1445 1444 1442 1441 1441 1440 1440 1440 1440 1441 1441 1441 1441 1441 1441 1441 1441 1440 1440 1440 1439 1439 1439 1439 1439 1439 1439 1438 1438 1438 1439 1439 1439 1439 1439 1439 1438
1459 1457 1452 1449 1448 1448 1446 1445 1443 1442 1440 1440 1439 1438 1438 1438 1438 1438 1439 1439 1439 1439 1439 1439 1439 1438 1438 1438 1437 1437 1437 1437 1437 1437 1437 1437 1437 1437 1437 1437 1437 1437 1437 1437
1456 1452 1450 1449 1447 1446 1445 1444 1442 1441 1440 1439 1438 1437 1437 1436 1436 1436 1437 1437 1437 1437 1437 1436 1437 1436 1436 1436 1436 1436 1436 1435 1435 1435 1435 1435 1435 1435 1435 1435 1435 1435 1435 1435
1453 1451 1449 1447 1446 1445 1444 1442 1441 1440 1439 1438 1437 1436 1435 1435 1435 1435 1435 1435 1435 1435 1435 1435 1435 1435 1435 1434 1434 1434 1434 1434 1434 1434 1434 1434 1434 1434 1434 1434 1434 1434 1434 1434
1451 1448 1448 1446 1445 1444 1442 1441 1440 1438 1437 1437 1436 1435 1434 1434 1434 1434 1434 1434 1434 1434 1433 1433 1433 1432 1433 1433 1433 1432 1432 1432 1432 1432 1432 1432 1432 1433 1433 1433 1433 1433 1434 1434
1447 1446 1446 1445 1444 1443 1441 1440 1439 1438 1437 1435 1435 1434 1433 1433 1432 1433 1432 1432 1432 1432 1432 1432 1431 1431 1431 1431 1431 1431 1431 1430 1431 1431 1431 1431 1431 1431 1431 1432 1432 1432 1433 1433
1446 1445 1444 1443 1442 1441 1440 1439 1438 1437 1436 1435 1434 1433 1432 1431 1431 1431 1431 1431 1431 1431 1430 1430 1430 1430 1430 1430 1430 1430 1430 1430 1430 1430 1430 1430 1430 1430 1430 1430 1431 1431 1432 1432
1444 1443 1443 1441 1441 1440 1439 1438 1437 1435 1434 1433 1433 1432 1431 1430 1429 1429 1430 1429 1429 1429 1429 1429 1428 1429 1429 1428 1428 1429 1429 1428 1429 1429 1429 1429 1430 1430 1430 1430 1430 1430 1431 1431
1442 1442 1441 1440 1439 1438 1437 1436 1435 1434 1433 1432 1431 1430 1429 1429 1428 1428 1428 1428 1427 1427 1427 1427 1427 1427 1427 1427 1427 1427 1427 1427 1428 1428 1428 1428 1429 1429 1429 1429 1429 1429 1429 1430
1441 1439 1439 1438 1437 1436 1436 1435 1434 1432 1431 1430 1429 1429 1428 1427 1427 1427 1427 1427 1427 1426 1426 1426 1426 1426 1426 1426 1426 1426 1426 1426 1426 1427 1427 1427 1427 1428 1428 1428 1428 1429 1429 1429
1439 1438 1437 1436 1435 1434 1433 1433 1432 1431 1430 1429 1428 1427 1426 1426 1425 1425 1425 1425 1425 1425 1425 1425 1425 1425 1425 1425 1425 1425 1425 1425 1425 1425 1426 1426 1426 1427 1427 1427 1428 1428 1428 1428
1436 1435 1434 1434 1433 1432 1431 1430 1429 1429 1428 1427 1426 1425 1425 1424 1424 1424 1424 1423 1423 1422 1423 1423 1424 1424 1423 1423 1424 1424 1424 1424 1424 1424 1425 1425 1425 1425 1426 1426 1427 1427 1427 1427
1434 1433 1432 1431 1431 1430 1429 1428 1427 1426 1425 1425 1424 1423 1423 1422 1422 1422 1422 1421 1421 1421 1421 1422 1422 1422 1422 1422 1422 1422 1422 1422 1422 1423 1423 1423 1424 1424 1424 1425 1425 1426 1426 1427
1431 1430 1429 1428 1428 1427 1426 1425 1424 1423 1423 1422 1422 1421 1420 1420 1420 1420 1419 1419 1419 1420 1420 1420 1420 1420 1420 1420 1421 1421 1421 1421 1421 1422 1422 1422 1423 1423 1423 1424 1424 1424 1425 1425
1429 1428 1427 1426 1425 1424 1423 1423 1422 1421 1420 1420 1420 1419 1418 1418 1418 1418 1418 1417 1417 1417 1418 1418 1418 1418 1419 1419 1419 1419 1420 1420 1420 1421 1421 1421 1421 1422 1422 1423 1423 1423 1423 1424
1427 1426 1425 1424 1423 1422 1421 1420 1420 1419 1418 1418 1417 1417 1416 1416 1416 1415 1415 1415 1415 1415 1416 1416 1416 1417 1417 1418 1418 1418 1418 1419 1419 1419 1420 1420 1420 1420 1421 1421 1421 1421 1422 1422
1425 1424 1423 1422 1421 1420 1419 1418 1417 1417 1416 1416 1415 1415 1414 1414 1413 1414 1413 1413 1413 1414 1414 1414 1415 1415 1416 1416 1416 1417 1417 1417 1418 1418 1419 1419 1419 1419 1419 1419 1419 1419 1420 1420
1423 1422 1421 1420 1419 1418 1417 1416 1415 1415 1414 1413 1413 1413 1412 1412 1412 1411 1411 1411 1411 1411 1411 1412 1412 1413 1413 1414 1414 1415 1415 1416 1416 1417 1417 1417 1417 1418 1418 1418 1417 1417 1417 1417
1421 1420 1419 1418 1417 1416 1415 1414 1413 1413 1412 1411 1411 1411 1410 1410 1410 1409 1409 1409 1409 1409 1409 1409 1410 1411 1411 1412 1412 1413 1413 1414 1414 1415 1415 1416 1416 1416 1416 1416 1416 1415 1415 1415
1418 1418 1417 1416 1415 1415 1414 1413 1412 1411 1410 1410 1409 1409 1408 1408 1408 1407 1407 1407 1407 1407 1407 1408 1408 1408 1409 1410 1410 1411 1411 1412 1412 1413 1413 1414 1414 1414 1414 1414 1413 1413 1413 1413